Overview Statistics Trail Chart Weather Telemetry Raw packets
 

This is the latest recevied weather packets stored in our database for station/object OK1FET-5. If no packets are shown the sender has not sent any weather packets the latest 10 day(s).

<< 26 27 28 29 30 31 32 >>
Time Temp. Humidity Pressure Rain* Wind** Luminosity Snow
1788166069 16.67° C 90% 1016.9 hPa - - - -
1788165473 16.67° C 90% 1016.8 hPa - - - -
1788164877 16.67° C 89% 1016.6 hPa - - - -
1788164281 16.11° C 91% 1016.7 hPa - - - -
1788163686 16.11° C 92% 1016.6 hPa - - - -
1788163090 15.56° C 91% 1016.7 hPa - - - -
1788162494 15.56° C 91% 1016.5 hPa - - - -
1788161898 15° C 91% 1016.4 hPa - - - -
1788161303 15° C 89% 1016.3 hPa - - - -
1788160707 15° C 88% 1016.4 hPa - - - -
1788160111 15° C 87% 1016.4 hPa - - - -
1788159516 15° C 85% 1016.3 hPa - - - -
1788158920 15° C 86% 1016.6 hPa - - - -
1788158324 15° C 82% 1016.9 hPa - - - -
1788157132 15.56° C 79% 1016.8 hPa - - - -
1788156537 16.67° C 73% 1015.8 hPa - - - -
1788155941 16.67° C 73% 1015.4 hPa - - - -
1788155345 16.67° C 73% 1015.2 hPa - - - -
1788154749 16.67° C 73% 1015.2 hPa - - - -
1788154154 17.78° C 70% 1015.3 hPa - - - -
1788153558 17.78° C 69% 1015.1 hPa - - - -
1788152962 17.78° C 69% 1015.2 hPa - - - -
1788152366 17.78° C 69% 1015.2 hPa - - - -
1788151771 17.22° C 69% 1015.2 hPa - - - -
1788151175 17.22° C 70% 1015.3 hPa - - - -

* Rain since midnight (hover to see other rain measurements)
** Current wind speed in m/s (hover to see current wind gust speed)